This demonstration page uses our WeatherBlox Daily Observations layout. Learn more.

40.92945, -100.16068

Hourly Observations for January 3, 2015

Temp ( °F °C ) Dew Point ( °F °C ) Humidity (%) Winds ( mph kmh ) Pressure ( in mb ) Visibility ( mi km ) Precip ( " mm )
12:15 am 00:15 Clear 14 -10.1 11 -11.7 88 88 Calm 30.06 1018 10 16.0934 N/A
12:35 am 00:35 Clear 14 -10.1 11 -11.6 89 89 Calm 30.06 1018 10 16.0934 N/A
12:55 am 00:55 Clear 13 -10.3 11 -11.8 89 89 SSE 3 6 30.06 1018 10 16.0934 N/A
1:15 am 01:15 Clear 14 -10.1 11 -11.5 90 90 S 3 6 30.06 1018 10 16.0934 N/A
1:35 am 01:35 Clear 13 -10.5 11 -11.7 91 91 Calm 30.03 1017 10 16.0934 N/A
1:55 am 01:55 Clear 12 -11 10 -12.5 89 89 Calm 30.06 1018 10 16.0934 N/A
2:15 am 02:15 Clear 13 -10.7 10 -12.1 90 90 Calm 30.03 1017 10 16.0934 N/A
2:35 am 02:35 Clear 13 -10.5 11 -11.8 90 90 Calm 30.03 1017 10 16.0934 N/A
2:55 am 02:55 Clear 14 -10 11 -11.4 90 90 Calm 30.03 1017 10 16.0934 N/A
3:15 am 03:15 Clear 15 -9.6 12 -11.1 89 89 Calm 30.03 1017 10 16.0934 N/A
3:35 am 03:35 Clear 15 -9.5 12 -11 89 89 Calm 30 1016 10 16.0934 N/A
3:55 am 03:55 Clear 15 -9.6 12 -11.1 89 89 Calm 30.03 1017 10 16.0934 N/A
4:15 am 04:15 Clear 15 -9.2 13 -10.7 89 89 SW 3 6 29.97 1015 10 16.0934 N/A
4:35 am 04:35 Clear 16 -8.9 13 -10.5 88 88 Calm 29.94 1014 10 16.0934 N/A
4:55 am 04:55 Clear 16 -8.7 14 -10.2 89 89 NW 3 6 29.94 1014 10 16.0934 N/A
5:15 am 05:15 Clear 17 -8.5 14 -10 89 89 W 3 6 29.94 1014 10 16.0934 N/A
5:35 am 05:35 Clear 18 -7.6 15 -9.2 88 88 WSW 3 6 29.94 1014 10 16.0934 N/A
5:55 am 05:55 Clear 19 -7.5 15 -9.3 87 87 WSW 3 6 29.91 1013 10 16.0934 N/A
6:15 am 06:15 Clear 18 -7.7 15 -9.5 87 87 Calm 29.94 1014 10 16.0934 N/A
6:35 am 06:35 Clear 18 -7.7 15 -9.5 87 87 S 7 11 29.94 1014 10 16.0934 N/A
6:55 am 06:55 Clear 19 -7.3 16 -9.1 87 87 SSW 7 11 29.91 1013 10 16.0934 N/A
7:15 am 07:15 Clear 20 -6.7 16 -8.8 85 85 W 5 7 29.91 1013 10 16.0934 N/A
7:35 am 07:35 Clear 20 -6.6 17 -8.5 87 87 Calm 29.91 1013 10 16.0934 N/A
7:55 am 07:55 Clear 20 -6.6 17 -8.5 87 87 NNW 3 6 29.91 1013 10 16.0934 N/A
8:15 am 08:15 Sunny 20 -6.5 17 -8.4 87 87 W 5 7 29.91 1013 10 16.0934 N/A
8:35 am 08:35 Sunny 21 -6 17 -8.1 85 85 WNW 7 11 29.91 1013 10 16.0934 N/A
8:55 am 08:55 Sunny 22 -5.6 18 -7.6 86 86 SSW 6 9 29.94 1014 10 16.0934 N/A
9:15 am 09:15 Sunny 23 -4.9 19 -7.1 85 85 S 6 9 29.94 1014 10 16.0934 N/A
9:35 am 09:35 Sunny 25 -4.1 20 -6.8 82 82 SSW 3 6 29.91 1013 10 16.0934 N/A
9:55 am 09:55 Sunny 25 -4 19 -7 80 80 WSW 5 7 29.97 1015 10 16.0934 N/A
10:15 am 10:15 Sunny 25 -3.7 20 -6.8 79 79 W 6 9 29.97 1015 10 16.0934 N/A
10:35 am 10:35 Sunny 26 -3.2 20 -6.5 78 78 W 3 6 29.94 1014 10 16.0934 N/A
10:55 am 10:55 Sunny 27 -2.9 21 -6 79 79 WNW 7 11 29.94 1014 10 16.0934 N/A
11:15 am 11:15 Sunny 28 -2.5 22 -5.5 80 80 NW 6 9 29.94 1014 10 16.0934 N/A
11:35 am 11:35 Sunny 31 -0.3 26 -3.6 79 79 N 9 15 29.94 1014 10 16.0934 N/A
11:55 am 11:55 Sunny 35 1.7 28 -2.5 74 74 NNE 16 26 29.88 1012 10 16.0934 N/A
12:15 pm 12:15 Partly Cloudy 35 1.7 28 -2.2 76 76 NNE 24 39 29.88 1012 10 16.0934 N/A
12:35 pm 12:35 Mostly Cloudy 34 1.3 28 -2.1 78 78 NNE 18 30 29.91 1013 10 16.0934 N/A
12:55 pm 12:55 Cloudy 34 1.1 29 -1.6 82 82 N 22 35 29.91 1013 10 16.0934 N/A
1:15 pm 13:15 Cloudy 34 1 29 -1.5 84 84 N 22 35 29.91 1013 10 16.0934 N/A
1:35 pm 13:35 Cloudy 33 0.4 29 -1.6 87 87 N 25 41 29.91 1013 10 16.0934 N/A
1:55 pm 13:55 Cloudy 28 -2.3 24 -4.6 84 84 N 31 50 29.97 1015 10 16.0934 N/A
2:15 pm 14:15 Cloudy 22 -5.3 17 -8.3 80 80 N 36 57 30.03 1017 10 16.0934 N/A
2:35 pm 14:35 Cloudy 20 -6.9 14 -10.2 78 78 N 31 50 30.09 1019 10 16.0934 N/A
2:55 pm 14:55 Windy with Snow Likely 18 -7.8 12 -11.2 77 77 N 30 48 30.09 1019 10 16.0934 N/A
3:15 pm 15:15 Windy with Snow Likely 17 -8.5 11 -11.7 78 78 N 31 50 30.12 1020 10 16.0934 N/A
3:35 pm 15:35 Cloudy 15 -9.2 9 -12.8 75 75 N 28 44 30.15 1021 10 16.0934 N/A
3:55 pm 15:55 Cloudy 14 -10.1 6 -14.2 72 72 N 39 63 30.18 1022 7 11.26538 N/A
4:15 pm 16:15 Cloudy 13 -10.5 6 -14.5 73 73 N 30 48 30.21 1023 10 16.0934 N/A
4:35 pm 16:35 Cloudy 13 -10.7 6 -14.5 74 74 NNW 28 44 30.27 1025 10 16.0934 N/A
4:55 pm 16:55 Windy with Snow Likely 12 -11.3 4 -15.3 73 73 N 35 56 30.27 1025 10 16.0934 N/A
5:15 pm 17:15 Windy with Snow Likely 11 -11.5 4 -15.3 74 74 N 23 37 30.27 1025 10 16.0934 N/A
5:35 pm 17:35 Windy with Snow Likely 11 -11.6 4 -15.5 73 73 NNW 30 48 30.27 1025 7 11.26538 N/A
5:55 pm 17:55 Cloudy with Snow 10 -12.1 5 -14.8 81 81 N 29 46 30.3 1026 0.75 1.207005 N/A
6:15 pm 18:15 Cloudy with Snow 10 -12.3 6 -14.7 82 82 N 28 44 30.3 1026 1 1.60934 N/A
6:35 pm 18:35 Cloudy with Heavy Snow 10 -12.4 6 -14.6 84 84 N 31 50 30.33 1027 0.5 0.80467 N/A
6:55 pm 18:55 Cloudy with Snow 10 -12.4 6 -14.5 85 85 NNW 24 39 30.33 1027 0.75 1.207005 N/A
7:15 pm 19:15 Cloudy with Snow 10 -12.5 6 -14.7 84 84 N 22 35 30.33 1027 1 1.60934 N/A
7:35 pm 19:35 Windy with Snow Likely 10 -12.5 6 -14.7 84 84 NNW 28 44 30.36 1028 1.25 2.011675 N/A
7:55 pm 19:55 Windy with Snow Likely 10 -12.5 6 -14.7 84 84 NNW 25 41 30.36 1028 1.25 2.011675 N/A
8:15 pm 20:15 Windy with Snow Likely 10 -12.3 6 -14.7 82 82 N 25 41 30.39 1029 1.25 2.011675 N/A
8:35 pm 20:35 Windy with Snow Likely 10 -12.2 6 -14.6 83 83 N 25 41 30.45 1031 1.25 2.011675 N/A
8:55 pm 20:55 Windy with Snow Likely 10 -12.1 6 -14.3 84 84 NNW 24 39 30.45 1031 1.5 2.41401 N/A
9:15 pm 21:15 Windy with Snow Likely 10 -12.5 5 -14.8 83 83 N 28 44 30.48 1032 1.5 2.41401 N/A
9:35 pm 21:35 Windy with Snow Likely 9 -12.6 5 -14.9 83 83 NNW 23 37 30.48 1032 1.5 2.41401 N/A
9:55 pm 21:55 Windy with Snow Likely 9 -12.6 5 -15.1 82 82 N 25 41 30.48 1032 1.5 2.41401 N/A
10:15 pm 22:15 Windy with Snow Likely 9 -12.6 5 -15.2 81 81 NNW 23 37 30.5 1033 1.75 2.816345 N/A
10:35 pm 22:35 Windy with Snow Likely 9 -12.7 4 -15.5 80 80 NNW 25 41 30.5 1033 1.75 2.816345 N/A
10:55 pm 22:55 Windy with Snow Likely 9 -13 4 -15.6 81 81 NNW 24 39 30.5 1033 2.5 4.02335 N/A
11:15 pm 23:15 Windy with Snow Likely 8 -13.1 3 -16.1 78 78 N 23 37 30.53 1034 2 3.21868 N/A
11:35 pm 23:35 Windy with Snow Likely 8 -13.4 2 -16.4 78 78 N 23 37 30.53 1034 2.5 4.02335 N/A
11:55 pm 23:55 Cloudy 8 -13.4 2 -16.9 75 75 NNW 28 44 30.53 1034 7 11.26538 N/A

Powered by AerisWeather